Regional Weather Roundup
Issued by NWS

Home | Current Version | Previous Version | Text Only | Print | Product List | Glossary Off
Versions: 1 2 3 4 5 6 7 8 9 10 11 12 13 14 15 16 17 18 19 20 21 22 23 24 25 26 27 28 29 30 31 32 33 34 35 36 37 38 39 40 41 42 43 44 45 46 47 48 49 50

000
ASUS45 KBOU 270907
RWRCO

WEATHER ROUNDUP FOR COLORADO
NATIONAL WEATHER SERVICE DENVER/BOULDER CO
300 AM MDT THU AUG 27 2015

NOTE: "FAIR" INDICATES FEW OR NO CLOUDS BELOW 12000 FEET WITH NO
SIGNIFICANT WEATHER AND/OR OBSTRUCTIONS TO VISIBILITY.

COZ001>005-013-030-031-271000-
...NORTHWEST COLORADO...

CITY           SKY/WX    TMP DP  RH WIND       PRES   REMARKS
CRAIG          CLOUDY    60  56  86 E3        30.30F
HAYDEN         NOT AVBL
MEEKER         CLOUDY    59  56  89 NE3       30.30F
MOUNT WERNER   NOT AVBL
STEAMBOAT SPGS CLOUDY    55  55  98 CALM      30.33S
WALDEN         MOCLDY    50  45  81 CALM      30.37S
$$

COZ006>008-011-271000-
...WEST CENTRAL VALLEYS...

CITY           SKY/WX    TMP DP  RH WIND       PRES   REMARKS
GRAND JUNCTION CLOUDY    62  62 100 SE7       30.23S
MONTROSE       CLOUDY    60  58  92 CALM      30.31F
EAGLE          CLOUDY    57  57 100 E6        30.34F
RIFLE          LGT RAIN  62  58  86 W3        30.27S
DELTA          RAIN      63  61  93 NE6       30.28S
NUCLA            N/A     63  57  82 CALM      30.34
$$

COZ017>023-064>068-271000-
...SOUTHWEST COLORADO...

CITY           SKY/WX    TMP DP  RH WIND       PRES   REMARKS
DURANGO        CLOUDY    57  56  96 NE5       30.40F
CORTEZ         CLOUDY    60  57  89 SW5       30.34S
PAGOSA SPRINGS LGT RAIN  55  55  99 CALM      30.48F
TELLURIDE      CLOUDY    55  49  79 CALM      30.51S
WOLF CREEK PAS SNOW      37  37 100 SW15G25   30.70F VSB 1/4
$$

COZ009-010-012-014-032>034-037-058>063-271000-
...CENTRAL COLORADO...

CITY           SKY/WX    TMP DP  RH WIND       PRES   REMARKS
ASPEN          CLOUDY    54  52  93 SW3       30.38F
BUENA VISTA    CLOUDY    50  46  84 CALM      30.40F
COPPER MTN     CLOUDY    50  39  66 SW8       30.64S
BERTHOUD PASS  HAZE      37  27  65 NW21G29   30.66S VSB 3/4
COTTONWOOD PAS NOT AVBL
GUNNISON       NOT AVBL
KREMMLING      LGT RAIN  54  48  82 CALM      30.37S
LEADVILLE      CLOUDY    48  44  86 NE3       30.49F
MONARCH PASS   SNOW      43  41  93 SW29      30.73F VSB<1/4
SALIDA         MOCLDY    62  50  66 W8        30.44F
SUNLIGHT       CLOUDY    50  50 100 CALM      30.58S
WILKERSON PASS PTCLDY    43  41  93 W13G22    30.57F
$$

COZ069>075-271000-
...SAN LUIS VALLEY/SANGRE DE CRISTO MOUNTAINS...

CITY           SKY/WX    TMP DP  RH WIND       PRES   REMARKS
ALAMOSA        CLOUDY    54  51  90 S9        30.41F
LA VETA PASS   CLOUDY    46  43  87 S20G35    30.52S
SAGUACHE       CLOUDY    52  50  93 NW6       30.44F
$$

COZ035-036-038>040-271000-
...NORTHERN COLORADO FRONT RANGE...

CITY           SKY/WX    TMP DP  RH WIND       PRES   REMARKS
DENVER INTL AP MOCLDY    65  46  50 SW7       30.10S
DMNS CITY PARK   N/A     67  44  43 SE8       30.11S
AURORA         PTCLDY    62  45  54 S7        30.14S
FRONT RANGE AP NOT AVBL
ERIE MUNI ARPT PTCLDY    61  47  61 CALM      30.08F
BOULDER MUN AP PTCLDY    66  48  52 W3        30.08S
CENTENNIAL     PTCLDY    64  44  48 SW9       30.14F
BROOMFIELD     PTCLDY    66  43  42 SW5       30.12F
FORT COLLINS   PTCLDY    64  48  55 N5        30.09R
LONGMONT       PTCLDY    60  50  69 CALM      30.10S
$$

COZ041-046-047-076>085-087-088-271000-
...PIKES PEAK/PALMER DIVIDE AND SOUTHERN FOOTHILLS...

CITY           SKY/WX    TMP DP  RH WIND       PRES   REMARKS
COLO. SPRINGS  MOCLDY    61  44  53 NE9       30.19F
A. F. ACADEMY  MOCLDY    68  44  42 N10       30.20F
ELLICOTT       MOCLDY   N/A N/A N/A CALM      30.17F
FALCON         MOCLDY    66  43  42 W12       30.24S
FORT CARSON    NOT AVBL
LIMON          PTCLDY    56  48  74 CALM      30.10F
MONUMENT HILL  PTCLDY    59  43  55 SW8       30.24S
TRINIDAD       MOCLDY    69  49  48 W12       30.19F
$$

COZ042>045-048>051-090-091-271000-
...NORTHEAST COLORADO...

CITY           SKY/WX    TMP DP  RH WIND       PRES   REMARKS
GREELEY ARPT   PTCLDY    61  48  63 NW7       30.06S
AKRON          PTCLDY    68  48  48 S6        30.04F
BURLINGTON     CLOUDY    73  50  44 S12       30.04F
WRAY           CLEAR     72  47  42 W5        30.00S
STERLING       PTCLDY    59  45  58 CALM      30.01F
HOLYOKE        CLEAR     63  52  67 W8        30.01R
FORT MORGAN    PTCLDY    61  43  52 N10       30.04S
$$

COZ086-089-092>099-271000-
...SOUTHEAST COLORADO...

CITY           SKY/WX    TMP DP  RH WIND       PRES   REMARKS
PUEBLO         CLOUDY    68  50  52 W5        30.09F
LA JUNTA       CLOUDY    75  48  38 S10       30.07F
LAMAR          MOCLDY    73  51  46 SW9       30.02F
SPRINGFIELD      N/A     72  53  51 S16       30.12F
$$



USA.gov is the U.S. government's official web portal to all federal, state and local government web resources and services.